FW8582 Weather Reports


time (UTC)temp
C
wind
direction
speed
KPH
gust
KPH
rain 1hr
cm
rain 24hr
cm
rain mn
cm
humidity
%
barometer
mb
20260505011550 11 219 8.0 17.7 0.00 0.00 0.00 79 1011.5
20260505010045 11 201 3.2 16.1 0.00 0.00 0.00 78 1011.4
20260505004540 11 132 6.4 16.1 0.00 0.00 0.00 76 1011.1
20260505003043 11 207 6.4 24.1 0.00 0.00 0.00 75 1010.8
20260505001544 12 148 4.8 22.5 0.00 0.00 0.00 73 1010.7
20260505000042 12 139 11.3 25.7 0.00 0.00 0.00 70 1010.5
20260504234542 12 145 6.4 20.9 0.00 0.00 0.00 68 1010.3
20260504233045 13 221 9.7 22.5 0.00 0.00 0.00 64 1010.2
20260504231544 13 186 8.0 25.7 0.00 0.00 0.00 60 1009.8
20260504230043 15 314 6.4 19.3 0.00 0.00 0.00 58 1009.8
20260504224542 15 162 8.0 22.5 0.00 0.00 0.00 56 1009.6
20260504223047 15 227 6.4 33.8 0.00 0.00 0.00 53 1009.7
20260504221545 16 160 12.9 30.6 0.00 0.00 0.00 51 1009.6
20260504220100 16 210 12.9 35.4 0.00 0.00 0.00 49 1009.6
20260504214551 17 188 12.9 30.6 0.00 0.00 0.00 48 1009.6
20260504213053 17 276 11.3 25.7 0.00 0.00 0.00 47 1009.4
20260504211538 17 249 11.3 30.6 0.00 0.00 0.00 48 1009.4
20260504210045 17 101 12.9 30.6 0.00 0.00 0.00 48 1009.3
20260504204544 18 135 12.9 35.4 0.00 0.00 0.00 47 1009.3
20260504203043 18 215 11.3 27.4 0.00 0.00 0.00 45 1009.2
20260504201537 17 202 17.7 43.5 0.00 0.00 0.00 45 1009.1
20260504200050 18 238 12.9 32.2 0.00 0.00 0.00 44 1009.2
20260504194547 18 233 14.5 25.7 0.00 0.00 0.00 41 1009.2
20260504193043 18 309 4.8 32.2 0.00 0.00 0.00 43 1009.2
20260504191553 18 224 9.7 33.8 0.00 0.00 0.00 40 1009.2
20260504190057 18 198 12.9 32.2 0.00 0.00 0.00 39 1009.3
20260504184559 18 257 14.5 35.4 0.00 0.00 0.00 37 1009.3
20260504183050 18 174 14.5 40.2 0.00 0.00 0.00 37 1009.6
20260504181547 18 253 11.3 37.0 0.00 0.00 0.00 37 1009.8
20260504180042 17 211 16.1 41.8 0.00 0.00 0.00 38 1009.9
20260504174547 17 271 14.5 45.1 0.00 0.00 0.00 36 1010.0
20260504173047 17 278 16.1 40.2 0.00 0.00 0.00 36 1010.0
20260504171544 17 270 12.9 38.6 0.00 0.00 0.00 35 1010.0
20260504081552 7 0 1.6 11.3 0.00 0.00 0.00 58 1011.2
20260504044547 5 0 0.0 4.8 0.00 0.00 0.00 59 1011.2
20260504043044 6 0 0.0 6.4 0.00 0.00 0.00 56 1011.2
20260504041540 5 0 0.0 4.8 0.00 0.00 0.00 58 1011.2
20260504040053 5 212 0.0 4.8 0.00 0.00 0.00 58 1011.0
20260504034556 5 247 0.0 6.4 0.00 0.00 0.00 60 1011.0
20260504033112 6 200 1.6 8.0 0.00 0.00 0.00 57 1010.8
20260504031638 6 0 1.6 8.0 0.00 0.00 0.00 55 1010.8
20260504030045 6 0 0.0 6.4 0.00 0.00 0.00 54 1010.7
20260504024550 6 224 1.6 6.4 0.00 0.00 0.00 54 1010.6
20260504023059 6 200 0.0 4.8 0.00 0.00 0.00 56 1010.7
20260504021543 6 191 0.0 3.2 0.00 0.00 0.00 56 1010.7
20260504020043 5 0 0.0 4.8 0.00 0.00 0.00 56 1010.7
20260504014549 6 0 0.0 3.2 0.00 0.00 0.00 56 1010.6
20260504013046 6 0 0.0 1.6 0.00 0.00 0.00 55 1010.4